This is the latest recevied weather packets stored in our database for station/object OH6GKW. If no packets are shown the sender has not sent any weather packets the latest 10 day(s).
| Time | Temp. | Humidity | Pressure | Rain* | Wind** | Luminosity | Snow |
|---|---|---|---|---|---|---|---|
| 1778279327 | -0.56° C | 88% | 1026.1 hPa | 0 mm | - | 0 W/m² | - |
| 1778279020 | 0° C | 88% | 1026.1 hPa | 0 mm | - | 0 W/m² | - |
| 1778278728 | 0° C | 88% | 1026.1 hPa | 0 mm | - | 0 W/m² | - |
| 1778278421 | 0° C | 89% | 1026.1 hPa | 0 mm | - | 0 W/m² | - |
| 1778278113 | 0° C | 90% | 1026.1 hPa | 0 mm | - | 0 W/m² | - |
| 1778277828 | 0° C | 90% | 1026.1 hPa | 0 mm | - | 0 W/m² | - |
| 1778277522 | 0° C | 89% | 1026.1 hPa | 0 mm | - | 0 W/m² | - |
| 1778277226 | 0° C | 89% | 1026.1 hPa | 0 mm | - | 0 W/m² | - |
| 1778276919 | 0° C | 88% | 1026.1 hPa | 0 mm | - | 0 W/m² | - |
| 1778276611 | 0° C | 88% | 1026 hPa | 0 mm | - | 0 W/m² | - |
| 1778276323 | 0.56° C | 89% | 1026 hPa | 0 mm | - | 0 W/m² | - |
| 1778276022 | 0° C | 89% | 1026 hPa | 0 mm | - | 0 W/m² | - |
| 1778275709 | 0.56° C | 88% | 1025.9 hPa | 0 mm | - | 0 W/m² | - |
| 1778275422 | 0.56° C | 87% | 1025.9 hPa | 0 mm | - | 0 W/m² | - |
| 1778275115 | 0.56° C | 87% | 1025.9 hPa | 0 mm | - | 0 W/m² | - |
| 1778274814 | 0.56° C | 86% | 1025.7 hPa | 0 mm | - | 0 W/m² | - |
| 1778274538 | 0.56° C | 86% | 1025.7 hPa | 0 mm | - | 0 W/m² | - |
| 1778274232 | 1.11° C | 85% | 1025.7 hPa | 0 mm | - | 0 W/m² | - |
| 1778273925 | 1.11° C | 84% | 1025.6 hPa | 0.25 mm | - | 0 W/m² | - |
| 1778273622 | 1.67° C | 83% | 1025.6 hPa | 0.25 mm | - | 0 W/m² | - |
| 1778273315 | 1.67° C | 81% | 1025.6 hPa | 0.25 mm | - | 0 W/m² | - |
| 1778273028 | 1.67° C | 82% | 1025.3 hPa | 0.25 mm | - | 0 W/m² | - |
| 1778272717 | 1.67° C | 81% | 1025.3 hPa | 0.25 mm | - | 0 W/m² | - |
| 1778272411 | 2.22° C | 81% | 1025.3 hPa | 0.25 mm | - | 0 W/m² | - |
| 1778272133 | 2.22° C | 81% | 1025.4 hPa | 0.25 mm | - | 0 W/m² | - |
* Rain since midnight (hover to see other rain measurements)
** Current wind speed in m/s (hover to see current wind gust speed)